Location: Bottenau
(48.5138°N, 8.0462°E)
Time: 22:43:25
(UTC+00:00)

ATLAS 3B R/B - Pass Details

Date: 30 July 2021
Orbit: 1001 x 1194 km, 63.8° (Epoch: 09 September)

Event Time Altitude Azimuth Distance (km) Brightness Sun altitude
Rises 19:53:39 0° 318° (NW) 3,904 7.8 -7.1°
Reaches altitude 10° 19:56:17 10° 316° (NW) 2,972 6.8 -7.5°
Maximum altitude 20:03:18 67° 236° (SW) 1,231 3.1 -8.4°
Drops below altitude 10° 20:10:36 10° 156° (SSE) 3,081 4.5 -9.3°
Enters shadow 20:11:06 - 155° (SSE) 3,255 4.7 -9.3°
